EW8654 Weather Reports


Display with metric or nautical units.
time (UTC)temp
F
wind
direction
speed
MPH
gust
MPH
rain 1hr
in
rain 24hr
in
rain mn
in
humidity
%
barometer
mb
20181114002122 63 158 0.0 0.0 0.00 0.00 0.00 43 1027.6
20181114001122 64 172 1.0 3.0 0.00 0.00 0.00 43 1027.5
20181114000126 64 147 1.0 3.0 0.00 0.00 0.00 44 1027.5
20181113235125 64 156 1.0 3.0 0.00 0.00 0.00 43 1027.5
20181113234126 63 113 0.0 0.0 0.00 0.00 0.00 45 1027.8
20181113233125 64 151 1.0 3.0 0.00 0.00 0.00 43 1027.9
20181113232125 64 157 1.0 2.0 0.00 0.00 0.00 42 1027.8
20181113231125 64 166 1.0 2.0 0.00 0.00 0.00 42 1028.0
20181113230124 64 166 1.0 3.0 0.00 0.00 0.00 42 1028.0
20181113225125 64 185 1.0 3.0 0.00 0.00 0.00 41 1028.0
20181113224125 65 195 1.0 2.0 0.00 0.00 0.00 41 1028.0
20181113223127 65 159 2.0 4.0 0.00 0.00 0.00 42 1028.0
20181113222126 64 190 1.0 4.0 0.00 0.00 0.00 42 1027.9
20181113221125 65 161 1.0 4.0 0.00 0.00 0.00 42 1028.0
20181113220128 65 183 2.0 4.0 0.00 0.00 0.00 41 1028.0
20181113215129 65 232 2.0 4.0 0.00 0.00 0.00 41 1028.1
20181113214124 65 159 2.0 3.0 0.00 0.00 0.00 42 1028.2
20181113213125 64 178 2.0 4.0 0.00 0.00 0.00 43 1028.3
20181113212125 63 171 3.0 5.0 0.00 0.00 0.00 44 1028.4
20181113211125 62 117 2.0 3.0 0.00 0.00 0.00 46 1028.6
20181113210128 61 184 1.0 3.0 0.00 0.00 0.00 47 1028.6
20181113205124 61 206 2.0 3.0 0.00 0.00 0.00 46 1028.5
20181113204128 61 166 2.0 4.0 0.00 0.00 0.00 48 1028.8
20181113203125 60 125 1.0 3.0 0.00 0.00 0.00 49 1028.9
20181113202127 58 133 1.0 3.0 0.00 0.00 0.00 51 1028.9
20181113201125 57 152 2.0 3.0 0.00 0.00 0.00 51 1029.1
20181113200124 57 171 2.0 4.0 0.00 0.00 0.00 51 1029.1
20181113195125 57 84 1.0 3.0 0.00 0.00 0.00 51 1029.5
20181113194124 55 74 1.0 2.0 0.00 0.00 0.00 52 1029.5
20181113193125 55 325 2.0 3.0 0.00 0.00 0.00 52 1029.8
20181113192125 54 231 1.0 2.0 0.00 0.00 0.00 54 1029.8
20181113191125 53 92 1.0 2.0 0.00 0.00 0.00 55 1029.8
20181113190125 52 49 2.0 3.0 0.00 0.00 0.00 55 1029.8
20181113185125 51 58 1.0 3.0 0.00 0.00 0.00 56 1029.8
20181113184125 51 20 1.0 3.0 0.00 0.00 0.00 56 1030.0
20181113183125 51 314 1.0 2.0 0.00 0.00 0.00 57 1029.9
20181113182125 48 18 0.0 3.0 0.00 0.00 0.00 59 1030.0
20181113181125 48 50 2.0 3.0 0.00 0.00 0.00 61 1030.0
20181113180124 48 352 1.0 3.0 0.00 0.00 0.00 61 1030.0
20181113175124 47 359 1.0 3.0 0.00 0.00 0.00 62 1030.1
20181113174125 46 105 1.0 2.0 0.00 0.00 0.00 64 1030.0
20181113173144 45 8 0.0 2.0 0.00 0.00 0.00 66 1030.3
20181113172125 44 29 1.0 3.0 0.00 0.00 0.00 69 1030.1
20181113171124 43 59 1.0 2.0 0.00 0.00 0.00 70 1030.2
20181113170124 43 2 1.0 2.0 0.00 0.00 0.00 75 1030.2
20181113165125 42 359 1.0 3.0 0.00 0.00 0.00 77 1029.8
20181113164125 41 286 0.0 2.0 0.00 0.00 0.00 80 1029.7
20181113163125 40 278 0.0 2.0 0.00 0.00 0.00 82 1029.6
20181113162125 39 286 0.0 2.0 0.00 0.00 0.00 86 1029.4
20181113161124 39 225 0.0 0.0 0.00 0.00 0.00 89 1029.4
20181113160125 38 158 0.0 0.0 0.00 0.00 0.00 90 1029.4
20181113155125 36 113 0.0 0.0 0.00 0.00 0.00 90 1029.4
20181113154124 36 158 0.0 0.0 0.00 0.00 0.00 90 1029.3
20181113153124 35 180 0.0 0.0 0.00 0.00 0.00 90 1029.2
20181113152125 35 135 0.0 0.0 0.00 0.00 0.00 90 1029.2
20181113151124 35 180 0.0 1.0 0.00 0.00 0.00 90 1029.1
20181113150125 34 68 0.0 1.0 0.00 0.00 0.00 90 1029.1
20181113145128 34 64 0.0 1.0 0.00 0.00 0.00 90 1029.0
20181113144125 33 45 0.0 0.0 0.00 0.00 0.00 90 1028.8
20181113143125 33 270 0.0 1.0 0.00 0.00 0.00 90 1028.7
20181113142125 34 158 0.0 0.0 0.00 0.00 0.00 90 1028.3
20181113141125 34 202 0.0 1.0 0.00 0.00 0.00 90 1028.6
20181113140128 34 203 0.0 0.0 0.00 0.00 0.00 90 1028.6
20181113135124 34 113 0.0 0.0 0.00 0.00 0.00 90 1028.4
20181113134125 34 158 0.0 0.0 0.00 0.00 0.00 89 1028.4
20181113133125 34 158 0.0 0.0 0.00 0.00 0.00 90 1028.2
20181113132125 34 338 0.0 0.0 0.00 0.00 0.00 90 1028.1
20181113131127 34 68 0.0 0.0 0.00 0.00 0.00 89 1028.1
20181113130124 33 338 0.0 0.0 0.00 0.00 0.00 89 1027.9
20181113125125 33 270 0.0 0.0 0.00 0.00 0.00 87 1027.9
20181113124125 34 135 0.0 0.0 0.00 0.00 0.00 86 1027.7
20181113123127 34 293 0.0 0.0 0.00 0.00 0.00 87 1027.8
20181113122126 34 270 0.0 0.0 0.00 0.00 0.00 88 1027.7
20181113121124 35 293 0.0 0.0 0.00 0.00 0.00 87 1027.7
20181113120125 35 203 0.0 0.0 0.00 0.00 0.00 87 1027.7
20181113115124 35 315 0.0 0.0 0.00 0.00 0.00 86 1027.8
20181113114125 35 158 0.0 0.0 0.00 0.00 0.00 86 1027.8
20181113113125 35 158 0.0 0.0 0.00 0.00 0.00 84 1027.7
20181113112127 36 158 0.0 0.0 0.00 0.00 0.00 85 1027.9
20181113111125 36 330 0.0 2.0 0.00 0.00 0.00 85 1027.7
20181113110125 36 338 0.0 0.0 0.00 0.00 0.00 86 1027.7
20181113105126 36 293 0.0 0.0 0.00 0.00 0.00 84 1027.5
20181113104125 36 270 0.0 0.0 0.00 0.00 0.00 83 1027.7
20181113103125 37 180 0.0 0.0 0.00 0.00 0.00 82 1027.7
20181113102124 37 158 0.0 0.0 0.00 0.00 0.00 81 1027.8
20181113101125 37 90 0.0 0.0 0.00 0.00 0.00 79 1027.8
20181113100126 37 45 0.0 0.0 0.00 0.00 0.00 79 1027.8
20181113095125 37 293 0.0 0.0 0.00 0.00 0.00 77 1027.7
20181113094125 38 203 0.0 0.0 0.00 0.00 0.00 75 1027.5
20181113093125 38 90 0.0 0.0 0.00 0.00 0.00 75 1027.6
20181113092144 39 135 0.0 0.0 0.00 0.00 0.00 73 1027.6
20181113091125 39 203 0.0 0.0 0.00 0.00 0.00 71 1027.6
20181113090124 40 203 0.0 0.0 0.00 0.00 0.00 72 1027.6
20181113085125 40 158 0.0 0.0 0.00 0.00 0.00 73 1027.5
20181113084125 40 315 0.0 0.0 0.00 0.00 0.00 73 1027.3
20181113083124 40 338 0.0 0.0 0.00 0.00 0.00 74 1027.4
20181113082126 40 270 0.0 0.0 0.00 0.00 0.00 74 1027.5
20181113081124 40 225 0.0 0.0 0.00 0.00 0.00 71 1027.3
20181113080125 40 158 0.0 0.0 0.00 0.00 0.00 71 1027.3
20181113075124 40 90 0.0 0.0 0.00 0.00 0.00 69 1027.4
20181113074124 40 158 0.0 0.0 0.00 0.00 0.00 68 1027.3
20181113073124 40 319 0.0 2.0 0.00 0.00 0.00 69 1027.1
20181113072124 40 315 0.0 0.0 0.00 0.00 0.00 69 1027.4
20181113071124 40 293 0.0 0.0 0.00 0.00 0.00 68 1027.3
20181113070124 41 23 0.0 0.0 0.00 0.00 0.00 65 1027.3
20181113065126 41 158 0.0 0.0 0.00 0.00 0.00 65 1027.2
20181113064127 41 158 0.0 0.0 0.00 0.00 0.00 64 1027.4
20181113063124 41 270 0.0 0.0 0.00 0.00 0.00 64 1027.6
20181113062125 41 293 0.0 0.0 0.00 0.00 0.00 62 1027.3
20181113061125 42 315 0.0 0.0 0.00 0.00 0.00 63 1027.3
20181113060124 42 293 0.0 0.0 0.00 0.00 0.00 64 1027.1
20181113055125 42 270 0.0 0.0 0.00 0.00 0.00 63 1027.1
20181113054125 42 113 0.0 0.0 0.00 0.00 0.00 62 1027.2
20181113053124 42 23 0.0 0.0 0.00 0.00 0.00 61 1027.1
20181113052124 43 23 0.0 0.0 0.00 0.00 0.00 60 1027.0
20181113051125 43 270 0.0 0.0 0.00 0.00 0.00 60 1026.7
20181113050125 43 270 0.0 0.0 0.00 0.00 0.00 60 1026.7
20181113045124 43 270 0.0 0.0 0.00 0.00 0.00 59 1026.5
20181113044124 44 248 0.0 0.0 0.00 0.00 0.00 58 1026.6
20181113043124 44 90 0.0 0.0 0.00 0.00 0.00 57 1026.3
20181113042124 44 360 0.0 0.0 0.00 0.00 0.00 57 1026.4
20181113041124 45 270 0.0 0.0 0.00 0.00 0.00 57 1026.3
20181113040124 45 270 0.0 0.0 0.00 0.00 0.00 56 1026.1
20181113035127 46 338 0.0 0.0 0.00 0.00 0.00 55 1026.1
20181113034124 46 338 0.0 0.0 0.00 0.00 0.00 57 1026.2
20181113033124 47 293 0.0 0.0 0.00 0.00 0.00 58 1026.0
20181113032124 47 158 0.0 0.0 0.00 0.00 0.00 56 1026.2
20181113031124 48 248 0.0 0.0 0.00 0.00 0.00 54 1026.0
20181113030124 49 158 0.0 0.0 0.00 0.00 0.00 54 1026.0
20181113025124 49 158 0.0 0.0 0.00 0.00 0.00 50 1026.0
20181113024125 50 270 0.0 0.0 0.00 0.00 0.00 51 1025.6
20181113023124 51 68 0.0 0.0 0.00 0.00 0.00 49 1025.6
20181113022125 51 203 0.0 0.0 0.00 0.00 0.00 47 1025.4
20181113021124 52 135 0.0 0.0 0.00 0.00 0.00 45 1025.3
20181113020135 53 135 0.0 0.0 0.00 0.00 0.00 46 1025.3
20181113015124 54 158 0.0 0.0 0.00 0.00 0.00 44 1025.3
20181113014124 55 158 0.0 0.0 0.00 0.00 0.00 39 1025.3
20181113013124 57 135 0.0 0.0 0.00 0.00 0.00 36 1025.1
20181113012129 58 135 0.0 0.0 0.00 0.00 0.00 37 1024.9
20181113011124 60 113 0.0 0.0 0.00 0.00 0.00 34 1024.9
20181113010126 61 156 1.0 3.0 0.00 0.00 0.00 32 1024.9
20181113005124 62 159 2.0 4.0 0.00 0.00 0.00 31 1024.7
20181113004125 63 161 3.0 4.0 0.00 0.00 0.00 30 1024.9
20181113003124 64 154 2.0 4.0 0.00 0.00 0.00 30 1024.9